www.pogodaiklimat.ru

Погода и климат >> Архив погоды >> Иран >> Остров Киш


ПОГОДА на Острове Киш

  • Прогноз погоды на Острове Киш
  • Монитор погоды на Острове Киш

АРХИВ ПОГОДЫ на Острове Киш

Время (UTC), дата Ветер
(напр.,м/с)
 
Видим.   Явления Облачность Т
(С)
Тd
(С)
f
(%)
Тe
(С)
Тes
(С)
Комфортность P
(гПа)
Po
(гПа)
Тmin
(С)
Tmax
(С)
R
(мм)
R24
(мм)
S
(см)
12 14.03 ЮВ 7 10 км 6/0
[Cs]
+24.8 +14.8 54 +28 +29 жарко 1015.2 1011.7
15 14.03 С 4 6000 м мгла 9/1 900 м
[Cu hum As op]
+22.6 +16.2 67 +27 +27 душно 1016.5 1013.0 +26.0 666
18 14.03 В 2 8000 м мгла {гроза} 9/3 750 м
[Cb calv As op]
+21.6 +13.7 61 +24 +24 комфорт 1015.8 1012.3 0.0
21 14.03 В 8 8000 м гроза без осадков 8/1 750 м
[Cb cap As op]
+22.8 +14.9 61 +27 +27 душно 1012.8 1009.3
00 15.03 СВ 5 8000 м в посл. час дождь {гроза} 10/6 750 м
[Cb calv As op]
+21.4 +12.0 55 +24 +24 комфорт 1016.1 1012.6 1
03 15.03 СВ 6 7000 м мгла {гроза, дождь} 10/6 750 м
[Cb calv As op]
+21.2 +12.4 57 +23 +23 комфорт 1017.5 1014.0 +20.0
06 15.03 В 8 7000 м мгла {гроза, дождь} 9/5 750 м
[Cb calv As op]
+22.0 +11.2 50 +24 +24 комфорт 1018.3 1014.8 0.1
09 15.03 ЮВ 12 8000 м мгла {дождь} 8/4 750 м
[Cb calv As op]
+24.4 +12.4 47 +26 +26 жарко 1016.6 1013.1 666
12 15.03 В 10 10 км 5/0
[Ac trans Cc]
+23.8 +11.8 47 +25 +26 комфорт 1014.6 1011.1 0.2
15 15.03 В 6 10 км 5/1 1050 м
[Sc diur, vesp Ci fib]
+22.4 +13.4 57 +25 +25 комфорт 1015.9 1012.4 +25.2
18 15.03 В 6 8000 м мгла 4/0
[Ci fib]
+22.2 +15.4 65 +26 +26 душно 1016.7 1013.2
21 15.03 В 5 8000 м мгла 3/0
[Ci fib]
+20.8 +15.1 70 +24 +24 комфорт 1015.3 1011.8
00 16.03 В 5 8000 м мгла ясно +21.4 +14.2 64 +24 +24 комфорт 1014.0 1010.5
03 16.03 В 4 8000 м мгла 4/3 900 м
[Cu hum Ci fib]
+20.4 +15.2 72 +23 +23 комфорт 1016.3 1012.8 +19.8
06 16.03 ЮВ 9 8000 м мгла 8/4 1050 м
[Cu hum Ci fib]
+23.2 +17.9 72 +29 +29 душно 1018.1 1014.6
09 16.03 ЮВ 10 8000 м мгла 3/0
[Ci fib]
+25.2 +18.5 66 +30 +31 душно 1015.9 1012.5
12 16.03 ЮВ 8 8000 м мгла 1/0
[Ci fib]
+24.8 +17.8 65 +29 +30 душно 1013.8 1010.4
15 16.03 В 2 8000 м мгла 3/0
[Ci fib]
+22.6 +17.5 73 +28 +28 душно 1013.1 1009.6 +25.8
18 16.03 В 4 8000 м мгла 3/0
[Ci fib]
+22.6 +16.0 66 +27 +27 душно 1013.2 1009.7
21 16.03 В 4 8000 м мгла 8/6 1050 м
[Sc Cs]
+22.8 +16.2 66 +27 +27 душно 1011.6 1008.1
00 17.03 В 7 7000 м в посл. час дождь 10/0 2000 м
[As op]
+22.0 +17.5 76 +27 +27 душно 1010.1 1006.6 0.6
03 17.03 В 8 7000 м дождь 10/8 1050 м
[Cb calv As op]
+21.2 +15.9 72 +25 +25 комфорт 1010.5 1007.0 +20.8
06 17.03 С 10 1500 м сильн. гроза, ливневой дождь 10/8 750 м
[Cb cap As op]
+18.2 +18.2 100 +17 +17 1097.3 1010.8 8
09 17.03 В 10 8000 м дымка {гроза, ливн. осадки} 10/6 1050 м
[Cb calv As op]
+20.6 +17.7 83 +24 +24 комфорт 1011.8 1008.3
12 17.03 В 7 8000 м мгла {гроза} 10/9 1050 м
[Cb calv As trans]
+22.0 +17.2 74 +26 +26 душно 1008.5 1005.1 9
15 17.03 В 5 8000 м мгла {гроза} 10/8 1050 м
[Cb calv As trans]
+21.4 +17.2 77 +25 +25 комфорт 1010.0 1006.5 +22.4 666
18 17.03 СЗ 3 8000 м дымка {гроза, ливн. осадки} 4/4 900 м
[Sc]
+20.8 +17.9 83 +25 +25 комфорт 1012.2 1008.7 2
21 17.03 СЗ 11 8000 м пыльный позёмок ясно +20.2 +13.6 66 +22 +22 комфорт 1012.9 1009.4
00 18.03 СЗ 6 8000 м мгла ясно +18.4 +13.5 73 +18 +18 1012.6 1009.1
03 18.03 СЗ 4 12 км ясно +17.4 +7.0 50 +17 +17 1014.2 1010.7 +17.2
06 18.03 З 7 12 км ясно +21.0 +6.3 38 +22 +25 комфорт 1017.0 1013.5
09 18.03 СЗ 8 12 км 1/0
[Ac trans]
+22.6 +8.7 41 +24 +27 комфорт 1016.5 1013.0 666
12 18.03 З 10 10 км ясно +22.4 +9.4 44 +24 +24 комфорт 1015.1 1011.6
15 18.03 З 11 10 км ясно +20.4 +12.6 61 +22 +22 комфорт 1015.6 1012.1 +23.4
18 18.03 СЗ 10 8000 м мгла ясно +20.0 +13.0 64 +21 +21 комфорт 1016.5 1013.0
21 18.03 СЗ 7 8000 м мгла ясно +19.4 +12.5 64 +20 +20 1015.7 1012.2
00 19.03 СЗ 6 8000 м мгла ясно +18.4 +12.1 67 +18 +18 1014.2 1010.7
03 19.03 СЗ 6 10 км ясно +18.4 +10.6 60 +18 +18 1014.7 1011.2 +18.2
06 19.03 З 7 8000 м мгла ясно +21.0 +7.4 41 +22 +25 комфорт 1015.8 1012.3
09 19.03 З 14 8000 м мгла ясно +22.6 +7.7 38 +24 +24 комфорт 1014.7 1011.2
12 19.03 З 13 10 км ясно +21.8 +8.1 41 +23 +23 комфорт 1012.4 1008.9
15 19.03 СЗ 12 10 км ясно +19.8 +11.3 58 +20 +20 1012.9 1009.4 +23.0
18 19.03 СЗ 6 8000 м мгла ясно +19.2 +12.4 65 +20 +20 1013.9 1010.4
21 19.03 СЗ 7 8000 м мгла ясно +18.6 +12.7 69 +19 +19 1012.6 1009.1
00 20.03 СЗ 6 8000 м мгла ясно +18.2 +13.1 72 +18 +18 1011.6 1008.1
03 20.03 СЗ 3 12 км 1/0
[Ci fib]
+17.2 +13.7 80 +17 +18 1012.5 1009.0 +17.2 666
06 20.03 СЗ 5 12 км 1/0
[Ci fib]
+21.2 +12.8 59 +23 +30 комфорт 1013.8 1010.3
09 20.03 СЗ 5 12 км 1/0
[Ci fib]
+23.4 +11.8 48 +26 +35 жарко 1013.1 1009.6
12 20.03 З 6 12 км 4/0
[Ci fib]
+23.2 +13.6 55 +27 +29 душно 1011.2 1007.7
15 20.03 З 2 8000 м мгла 4/0
[Ci fib]
+21.0 +13.8 63 +24 +24 комфорт 1011.5 1008.0 +24.8
18 20.03 нст 1 8000 м мгла ясно +19.2 +15.5 79 +22 +22 комфорт 1012.8 1009.3
21 20.03 З 2 8000 м дымка ясно +19.2 +16.9 87 +22 +22 комфорт 1012.8 1009.3
00 21.03 нст 1 7000 м дымка 1/1 1050 м
[Cu hum]
+18.6 +17.3 92 +21 +21 комфорт 1011.7 1008.2
03 21.03 ЮЗ 2 2000 м дымка 1/0
[Ci fib]
+18.0 +17.7 98 +19 +19 1012.5 1009.0 +18.0
06 21.03 штиль 0 5000 м дымка 5/1 900 м
[Cu hum Ci fib]
+22.6 +20.4 87 +29 +42 очень
душно
1014.1 1010.6
09 21.03 ЮЗ 4 6000 м мгла 8/0
[Cs]
+24.2 +19.9 77 +30 +40 очень
душно
1014.0 1010.5

 

Местоположение метеостанции Остров Киш (Иран): широта 26.50 долгота 53.98 высота над уровнем моря 30 м.

В архиве по умолчанию представлена погода на Острове Киш за последнюю неделю. Архивные данные за месяц целиком и за предыдущие месяцы, начиная с января 2011 года, Вы можете получить, выбрав интересующий диапазон дат из раскрывающегося списка и нажав кнопку "Ввод!".


*Определитесь, кто Вы:
робот инопланетянин человек

Внимание! Время в таблицах - всемирное. Для получения местного времени необходимо прибавить поправку, которая равна 3.5 ч.

Смотрите также архив погоды в соседних городах и на ближайших метеорологических станциях:

Погода в Бендер-Ленге (Иран) (85 км)
Погода на Острове Сирри (Иран) (87 км)
Погода на Острове Абу-Муса (Иран) (113 км)
Погода в Дубае (ОАЭ) (194 км)
Погода в Шардже (ОАЭ) (202 км)
Погода в Аль-Мактум аэропорту (ОАЭ) (214 км)
Погода в Рай-эль-Хайма аэропорту (ОАЭ) (218 км)
Погода в Эль-Хасаб аэропорту (Оман) (227 км)
Погода в Эль-Хасабе (Оман) (228 км)
Погода в Абу-Даби Батин аэропорту (ОАЭ) (235 км)

Пояснения к столбцам:

Ветер - указаны скорость ветра в м/с - средняя за 10 мин, порывы в срок и между сроками (в фигурных скобках) и направление, откуда дует ветер: С - северный, СВ - северо-восточный, В - восточный, ЮВ - юго-восточный, Ю - южный, ЮЗ - юго-западный, З - западный, СЗ - северо-западный.
Видимость - горизонтальная дальность видимости в метрах или километрах. При видимости от 1 до 10 км при отсутствии осадков обычно наблюдается дымка, при ухудшении видимости до 1 км и менее - туман. В сухую погоду видимость может ухудшаться дымом, пылью или мглою.
Явления - указаны атмосферные явления, наблюдавшиеся в срок или в последний час перед сроком; фигурными скобками обозначены явления, наблюдавшиеся между сроками (за 1-3 часа до срока); квадратными скобками обозначены град или гололедные отложения с указанием их диаметра в мм.
Облачность - указаны через наклонную черту общая и нижняя облачность в баллах и высота нижней границы облаков в метрах; квадратными скобками обозначены формы облаков: Ci - перистые, Cs - перисто-слоистые, Cc - перисто-кучевые, Ac - высококучевые, As - высокослоистые, Sc - слоисто-кучевые, Ns - слоисто-дождевые, Cu - кучевые, Cb - кучево-дождевые. Подробнее классификацию облаков см. в Атласе облаков (PDF).
T - Температура воздуха - температура, измеренная на высоте 2 м над землей.
Td - Температура точки росы - температура, при понижении до которой содержащийся в воздухе водяной пар достигнет насыщения.
f - Относительная влажность воздуха - влажноcть воздуха, измеренная на высоте 2 м над землей.
Te - Эффективная температура - температура, которую ощущает одетый по сезону человек в тени. Характеристика душности погоды. При расчете учитывается влияние влажности воздуха и скорости ветра на теплоощущения человека.
Tes - Эффективная температура на солнце - температура, которую ощущает человек, с поправкой на солнечный нагрев. Характеристика знойности погоды. Зависит от высоты солнца над горизонтом, облачности и скорости ветра. Ночью, в пасмурную погоду, а также при ветре 12 м/с и более поправка равна нулю.
P - Атмосферное давление - приведенное к уровню моря атмосферное давление.
Po - Атмосферное давление - измеренное на уровне метеостанции атмосферное давление.
Tmin - Минимальная температура - минимум температуры воздуха на высоте 2 м над землей.
Tmax - Максимальная температура - максимум температуры воздуха на высоте 2 м над землей.
R - Количество осадков - Количество выпавших осадков за период времени, мм. При наведении курсора мыши на число - период времени, за который выпало указанное количество осадков.
R24 - Количество осадков - Количество выпавших осадков за 24 часа, мм.
S - Снежный покров - Высота снежного покрова, см. При наведении курсора мыши на число - состояние снежного покрова и степень покрытия местности в баллах.